Flag for United Kingdom Weather past 2 weeks in Swansea, Wales, United Kingdom

Now
52 °F

Cool.


Feels Like: 51 °F
Forecast: 40 / 56 °F
Wind: 5 mph from East

Location: Mumbles


UV Index: 3 (Moderate)

Visibility: N/A


Pressure: 30.21 "Hg

Humidity: 59%

Dew point: 38 °F

Location of SwanseaLocation

Historic Weather in Swansea

°F

Swansea temperature yesterday

Maximum temperature yesterday: 57 °F (at 5:00 PM)
Minimum temperature yesterday: 47 °F (at 6:00 AM)
Average temperature yesterday: 50 °F

Past Weeks' High & Low Weather Summary

 TemperatureHumidityPressure
High60 °F (Apr 14, 4:00 PM)100% (Apr 7, 6:00 AM)30.44 "Hg (Apr 7, 6:00 AM)
Low44 °F (Apr 13, 7:00 AM)47% (Apr 14, 4:00 PM)29.57 "Hg (Apr 3, 9:00 AM)
Average50 °F85%30.10 "Hg
* Reported Apr 3 9:00 AM — Apr 18 9:00 AM, Swansea, Weather by CustomWeather, © 2014

Note: Actual official high and low records may vary slightly from our data, if they occured in-between our weather recording intervals... More about our weather records

Advertising

Historic Weather Conditions — Data for Previous 24 hours

 ConditionsComfort  
Time TempWeatherWind HumidityBarometerVisibility
9:00 AM
Apr 18
49 °FCool.9 mph64%30.20 "HgN/A
8:00 AM48 °FCool.7 mph77%30.19 "HgN/A
7:00 AM46 °FCool.8 mph78%30.18 "HgN/A
6:00 AM46 °FCool.9 mph80%30.16 "HgN/A
5:00 AM47 °FCool.10 mph86%30.16 "HgN/A
4:00 AM48 °FCool.8 mph86%30.16 "HgN/A
3:00 AM49 °FCool.10 mph86%30.17 "HgN/A
2:00 AM48 °FCool.7 mph86%30.18 "HgN/A
1:00 AM49 °FCool.7 mph82%30.18 "HgN/A
5:00 PM
Apr 17
57 °FCool.14 mph63%30.15 "HgN/A
4:00 PM55 °FCool.16 mph70%30.15 "HgN/A
3:00 PM53 °FCool.20 mph89%30.17 "HgN/A
2:00 PM51 °FCool.18 mph92%30.17 "HgN/A
1:00 PM51 °FCool.16 mph91%30.18 "HgN/A
12:00 PM51 °FCool.15 mph88%30.19 "HgN/A
11:00 AM53 °FCool.13 mph81%30.21 "HgN/A
10:00 AM53 °FCool.12 mph83%30.22 "HgN/A
Weather by CustomWeather, © 2014

See weather overview